Weather History for La Porte, IN

Change the Weather History Date:

Sunday, April 20, 2014

  Actual Average (KVPZ) Record (KVPZ)
Temperature  
Mean Temperature 54 °F 51 °F  
Max Temperature 74 °F 62 °F 76 °F (2006)
Min Temperature 34 °F 40 °F 29 °F (2013)
Degree Days  
Heating Degree Days 11 14  
Month to date heating degree days 356  
Since 1 July heating degree days 5933  
Cooling Degree Days 0 0  
Month to date cooling degree days 0  
Year to date cooling degree days 0  
Growing Degree Days 4 (Base 50)    
Moisture  
Dew Point 31 °F    
Average Humidity 43    
Maximum Humidity 79    
Minimum Humidity 23    
Precipitation  
Precipitation 0.00 in 0.10 in 1.04 in (2000)
Month to date precipitation 2.23  
Year to date precipitation 7.88  
Sea Level Pressure  
Sea Level Pressure 30.19 in    
Wind  
Wind Speed 6 mph (SSE)    
Max Wind Speed 13 mph    
Max Gust Speed 18 mph    
Visibility 10 miles    
Events      
T = Trace of Precipitation, MM = Missing Value Source: NWS Daily Summary

Daily Weather History Graph

Daily Weather History Graph

Search for Another Location

Airport:

Trip Planner

Search our weather history database for the weather conditions in past years. The results will help you decide how hot, cold, wet, or windy it might be!

Date:

Astronomy

Apr. 20, 2014 Rise Set
Actual Time 5:59 AM CDT 7:32 PM CDT
Civil Twilight 5:30 AM CDT 8:02 PM CDT
Nautical Twilight 4:55 AM CDT 8:37 PM CDT
Astronomical Twilight 4:17 AM CDT 9:15 PM CDT
Moon 12:13 AM CDT (4/20) 10:17 AM CDT (4/20)
Length of Visible Light 14h 32m
Length of Day
13h 33m
Waning Gibbous, 68% of the Moon is Illuminated
Apr 20
Waning Gibbous
Apr 22
Last Quarter
Apr 29
New
May 6
First Quarter
May 14
Full

Hourly Weather History & Observations

Time (CDT) Temp. Windchill Dew Point Humidity Pressure Visibility Wind Dir Wind Speed Gust Speed Precip Events Conditions
12:15 AM 45.5 °F 41.3 °F 28.0 °F 51% 30.29 in 10.0 mi ESE 8.1 mph - N/A   Clear
12:35 AM 44.8 °F 41.0 °F 27.7 °F 51% 30.30 in 10.0 mi ESE 6.9 mph - N/A   Clear
12:55 AM 43.9 °F 40.5 °F 27.1 °F 52% 30.29 in 10.0 mi ESE 5.8 mph - N/A   Clear
1:15 AM 42.1 °F 38.4 °F 27.1 °F 55% 30.28 in 10.0 mi ESE 5.8 mph - N/A   Clear
1:35 AM 41.0 °F 38.0 °F 27.0 °F 57% 30.28 in 10.0 mi SE 4.6 mph - N/A   Clear
1:55 AM 40.5 °F 38.4 °F 26.6 °F 58% 30.28 in 10.0 mi ESE 3.5 mph - N/A   Clear
2:15 AM 40.5 °F 36.5 °F 26.1 °F 57% 30.28 in 10.0 mi ESE 5.8 mph - N/A   Clear
2:35 AM 40.5 °F 37.3 °F 25.7 °F 56% 30.27 in 10.0 mi ESE 4.6 mph - N/A   Clear
2:55 AM 39.2 °F 35.9 °F 26.4 °F 60% 30.27 in 10.0 mi ESE 4.6 mph - N/A   Scattered Clouds
3:15 AM 37.6 °F 33.1 °F 27.5 °F 67% 30.27 in 10.0 mi ESE 5.8 mph - N/A   Scattered Clouds
3:35 AM 37.4 °F 33.8 °F 27.5 °F 67% 30.27 in 10.0 mi ESE 4.6 mph - N/A   Clear
3:55 AM 34.7 °F 30.6 °F 27.5 °F 75% 30.26 in 10.0 mi ESE 4.6 mph - N/A   Clear
4:15 AM 36.1 °F 33.5 °F 27.7 °F 71% 30.27 in 10.0 mi ESE 3.5 mph - N/A   Clear
4:35 AM 37.2 °F 34.7 °F 27.5 °F 68% 30.27 in 10.0 mi SE 3.5 mph - N/A   Clear
4:55 AM 36.1 °F 33.5 °F 27.5 °F 71% 30.27 in 10.0 mi ESE 3.5 mph - N/A   Clear
5:15 AM 35.6 °F 31.7 °F 27.3 °F 72% 30.26 in 10.0 mi ESE 4.6 mph - N/A   Clear
5:35 AM 36.0 °F - 27.3 °F 71% 30.26 in 10.0 mi Calm Calm - N/A   Clear
5:55 AM 35.8 °F 33.0 °F 27.3 °F 71% 30.26 in 10.0 mi ESE 3.5 mph - N/A   Clear
6:15 AM 34.0 °F 31.0 °F 28.0 °F 79% 30.26 in 10.0 mi ESE 3.5 mph - N/A   Clear
6:35 AM 36.0 °F 33.3 °F 28.9 °F 76% 30.26 in 10.0 mi ESE 3.5 mph - N/A   Clear
6:55 AM 37.8 °F - 31.5 °F 78% 30.26 in 10.0 mi Calm Calm - N/A   Clear
7:15 AM 40.3 °F 38.2 °F 30.2 °F 67% 30.27 in 10.0 mi SE 3.5 mph - N/A   Clear
7:35 AM 41.9 °F 39.0 °F 29.7 °F 62% 30.27 in 10.0 mi SE 4.6 mph - N/A   Clear
7:55 AM 44.4 °F 40.0 °F 30.4 °F 58% 30.26 in 10.0 mi SE 8.1 mph - N/A   Clear
8:15 AM 47.3 °F - 30.9 °F 53% 30.26 in 10.0 mi South 6.9 mph - N/A   Clear
8:35 AM 49.5 °F - 31.5 °F 50% 30.27 in 10.0 mi South 6.9 mph - N/A   Clear
8:55 AM 50.5 °F - 31.6 °F 48% 30.26 in 10.0 mi South 9.2 mph - N/A   Clear
9:15 AM 53.1 °F - 31.8 °F 44% 30.26 in 10.0 mi South 9.2 mph - N/A   Clear
9:35 AM 54.7 °F - 31.3 °F 41% 30.26 in 10.0 mi South 8.1 mph - N/A   Clear
9:55 AM 57.4 °F - 30.9 °F 37% 30.25 in 10.0 mi South 8.1 mph - N/A   Clear
10:15 AM 59.2 °F - 31.3 °F 35% 30.24 in 10.0 mi South 9.2 mph - N/A   Clear
10:35 AM 62.4 °F - 31.8 °F 32% 30.24 in 10.0 mi SW 11.5 mph 18.4 mph N/A   Clear
10:55 AM 63.5 °F - 32.0 °F 31% 30.24 in 10.0 mi SSW 12.7 mph - N/A   Clear
11:15 AM 65.1 °F - 32.4 °F 29% 30.23 in 10.0 mi SSW 10.4 mph 16.1 mph N/A   Clear
11:35 AM 65.7 °F - 32.4 °F 29% 30.23 in 10.0 mi SSW 11.5 mph - N/A   Clear
12:15 PM 67.6 °F - 32.5 °F 27% 30.22 in 10.0 mi South 9.2 mph - N/A   Clear
12:35 PM 68.2 °F - 32.2 °F 26% 30.21 in 10.0 mi South 5.8 mph - N/A   Clear
12:55 PM 69.4 °F - 33.8 °F 27% 30.20 in 10.0 mi South 8.1 mph - N/A   Clear
1:15 PM 70.2 °F - 33.4 °F 26% 30.19 in 10.0 mi South 9.2 mph - N/A   Clear
1:35 PM 70.9 °F - 34.0 °F 26% 30.19 in 10.0 mi SW 9.2 mph - N/A   Clear
1:55 PM 70.9 °F - 33.4 °F 25% 30.18 in 10.0 mi SSE 5.8 mph - N/A   Clear
2:15 PM 71.2 °F - 33.6 °F 25% 30.17 in 10.0 mi SW 8.1 mph - N/A   Clear
2:35 PM 72.1 °F - 34.3 °F 25% 30.17 in 10.0 mi SW 8.1 mph - N/A   Clear
2:55 PM 72.5 °F - 33.6 °F 24% 30.16 in 10.0 mi SW 8.1 mph - N/A   Clear
3:15 PM 73.0 °F - 33.8 °F 24% 30.15 in 10.0 mi South 8.1 mph - N/A   Clear
3:35 PM 73.0 °F - 34.5 °F 24% 30.14 in 10.0 mi SW 5.8 mph - N/A   Clear
3:55 PM 73.2 °F - 34.2 °F 24% 30.14 in 10.0 mi WSW 6.9 mph - N/A   Clear
4:15 PM 74.3 °F - 33.6 °F 23% 30.13 in 10.0 mi South 5.8 mph - N/A   Clear
4:35 PM 73.8 °F - 33.8 °F 23% 30.13 in 10.0 mi SW 6.9 mph - N/A   Clear
4:55 PM 73.8 °F - 34.3 °F 24% 30.12 in 10.0 mi South 10.4 mph - N/A   Clear
5:15 PM 72.5 °F - 34.5 °F 25% 30.12 in 10.0 mi South 5.8 mph - N/A   Clear
5:35 PM 73.4 °F - 34.7 °F 24% 30.11 in 10.0 mi SW 9.2 mph - N/A   Clear
6:15 PM 73.0 °F - 34.0 °F 24% 30.11 in 10.0 mi SSW 6.9 mph - N/A   Clear
6:40 PM 71.4 °F - 33.3 °F 25% 30.10 in 10.0 mi SSW 5.8 mph - N/A   Clear
6:55 PM 70.7 °F - 34.2 °F 26% 30.10 in 10.0 mi SSW 4.6 mph - N/A   Clear
7:15 PM 69.1 °F - 33.4 °F 27% 30.10 in 10.0 mi South 4.6 mph - N/A   Clear
7:35 PM 67.3 °F - 33.6 °F 29% 30.10 in 10.0 mi South 5.8 mph - N/A   Clear
7:55 PM 66.6 °F - 33.8 °F 30% 30.10 in 10.0 mi South 3.5 mph - N/A   Clear
8:15 PM 62.6 °F - 35.6 °F 37% 30.10 in 10.0 mi Calm Calm - N/A   Clear
8:35 PM 62.8 °F - 35.1 °F 36% 30.10 in 10.0 mi SSE 3.5 mph - N/A   Clear
8:55 PM 61.0 °F - 35.4 °F 38% 30.10 in 10.0 mi SSE 3.5 mph - N/A   Clear
9:15 PM 59.9 °F - 35.4 °F 40% 30.10 in 10.0 mi SSE 3.5 mph - N/A   Clear
9:35 PM 60.3 °F - 34.2 °F 38% 30.09 in 10.0 mi SSE 4.6 mph - N/A   Clear
9:55 PM 60.8 °F - 32.5 °F 35% 30.09 in 10.0 mi SSE 4.6 mph - N/A   Scattered Clouds
10:15 PM 61.7 °F - 31.3 °F 32% 30.09 in 10.0 mi SSE 4.6 mph - N/A   Scattered Clouds
10:35 PM 61.0 °F - 31.1 °F 32% 30.08 in 10.0 mi SSE 3.5 mph - N/A   Scattered Clouds
10:55 PM 60.1 °F - 31.1 °F 33% 30.07 in 10.0 mi South 8.1 mph - N/A   Clear
11:15 PM 59.7 °F - 31.1 °F 34% 30.06 in 10.0 mi South 4.6 mph - N/A   Clear
11:35 PM 59.4 °F - 30.2 °F 33% 30.06 in 10.0 mi South 4.6 mph - N/A   Clear
11:55 PM 59.0 °F - 30.0 °F 33% 30.06 in 10.0 mi South 3.5 mph - N/A   Scattered Clouds